| time (UTC) | temp C | wind direction | speed KPH | gust KPH | rain 1hr cm | rain 24hr cm | rain mn cm | humidity % | barometer mb |
| 20260504050526 | 18 | 198 | 11.3 | 19.3 | 0.00 | 0.00 | 0.00 | 73 | 1016.8 |
| 20260504050023 | 18 | 196 | 14.5 | 20.9 | 0.00 | 0.00 | 0.00 | 73 | 1016.7 |
| 20260504045519 | 18 | 206 | 14.5 | 22.5 | 0.00 | 0.00 | 0.00 | 73 | 1017.0 |
| 20260504045015 | 18 | 186 | 4.8 | 17.7 | 0.00 | 0.00 | 0.00 | 73 | 1017.0 |
| 20260504044513 | 18 | 201 | 11.3 | 19.3 | 0.00 | 0.00 | 0.00 | 73 | 1016.8 |
| 20260504044009 | 18 | 195 | 8.0 | 17.7 | 0.00 | 0.00 | 0.00 | 73 | 1017.1 |
| 20260504043506 | 18 | 202 | 14.5 | 16.1 | 0.00 | 0.00 | 0.00 | 73 | 1017.1 |
| 20260504043004 | 18 | 204 | 14.5 | 19.3 | 0.00 | 0.00 | 0.00 | 73 | 1017.2 |
| 20260504042500 | 18 | 204 | 9.7 | 16.1 | 0.00 | 0.00 | 0.00 | 73 | 1017.1 |
| 20260504041957 | 18 | 253 | 9.7 | 16.1 | 0.00 | 0.00 | 0.00 | 73 | 1017.1 |
| 20260504041453 | 18 | 226 | 6.4 | 16.1 | 0.00 | 0.00 | 0.00 | 73 | 1017.3 |
| 20260504040949 | 18 | 219 | 8.0 | 16.1 | 0.00 | 0.00 | 0.00 | 73 | 1017.5 |
| 20260504040447 | 18 | 204 | 11.3 | 20.9 | 0.00 | 0.00 | 0.00 | 73 | 1017.3 |
| 20260504035943 | 18 | 208 | 8.0 | 17.7 | 0.00 | 0.00 | 0.00 | 73 | 1017.5 |
| 20260504035441 | 18 | 229 | 14.5 | 19.3 | 0.00 | 0.00 | 0.00 | 73 | 1017.4 |
| 20260504034937 | 18 | 236 | 8.0 | 16.1 | 0.00 | 0.00 | 0.00 | 73 | 1017.6 |
| 20260504034435 | 18 | 228 | 14.5 | 24.1 | 0.00 | 0.00 | 0.00 | 73 | 1017.5 |
| 20260504033931 | 18 | 204 | 12.9 | 16.1 | 0.00 | 0.00 | 0.00 | 73 | 1017.6 |
| 20260504033429 | 18 | 232 | 8.0 | 20.9 | 0.00 | 0.00 | 0.00 | 73 | 1017.7 |
| 20260504032926 | 18 | 174 | 1.6 | 12.9 | 0.00 | 0.00 | 0.00 | 73 | 1017.6 |
| 20260504032423 | 18 | 217 | 11.3 | 14.5 | 0.00 | 0.00 | 0.00 | 73 | 1017.7 |
| 20260504031920 | 18 | 222 | 9.7 | 16.1 | 0.00 | 0.00 | 0.00 | 73 | 1017.9 |
| 20260504031417 | 18 | 220 | 9.7 | 14.5 | 0.00 | 0.00 | 0.00 | 73 | 1017.8 |
| 20260504030913 | 18 | 193 | 8.0 | 14.5 | 0.00 | 0.00 | 0.00 | 73 | 1017.7 |
| 20260504030410 | 18 | 205 | 11.3 | 12.9 | 0.00 | 0.00 | 0.00 | 73 | 1017.7 |
| 20260504025906 | 18 | 197 | 9.7 | 20.9 | 0.00 | 0.00 | 0.00 | 73 | 1017.5 |
| 20260504025403 | 18 | 199 | 8.0 | 14.5 | 0.00 | 0.00 | 0.00 | 73 | 1017.9 |
| 20260504024900 | 18 | 199 | 8.0 | 11.3 | 0.00 | 0.00 | 0.00 | 73 | 1017.6 |
| 20260504024356 | 18 | 215 | 9.7 | 14.5 | 0.00 | 0.00 | 0.00 | 73 | 1017.6 |
| 20260504023854 | 19 | 182 | 6.4 | 12.9 | 0.00 | 0.00 | 0.00 | 73 | 1017.6 |
| 20260504023350 | 19 | 221 | 11.3 | 14.5 | 0.00 | 0.00 | 0.00 | 73 | 1017.6 |
| 20260504022846 | 19 | 222 | 8.0 | 12.9 | 0.00 | 0.00 | 0.00 | 73 | 1017.3 |
| 20260504022343 | 19 | 202 | 9.7 | 12.9 | 0.00 | 0.00 | 0.00 | 73 | 1017.3 |
| 20260504021840 | 19 | 194 | 8.0 | 16.1 | 0.00 | 0.00 | 0.00 | 73 | 1017.3 |
| 20260504021337 | 20 | 214 | 8.0 | 11.3 | 0.00 | 0.00 | 0.00 | 73 | 1017.2 |
| 20260504020834 | 20 | 208 | 11.3 | 11.3 | 0.00 | 0.00 | 0.00 | 74 | 1017.4 |
| 20260504020331 | 20 | 199 | 11.3 | 14.5 | 0.00 | 0.00 | 0.00 | 74 | 1017.2 |
| 20260504015826 | 20 | 90 | 3.2 | 11.3 | 0.00 | 0.00 | 0.00 | 74 | 1017.1 |
| 20260504015323 | 20 | 199 | 11.3 | 12.9 | 0.00 | 0.00 | 0.00 | 74 | 1017.1 |
| 20260504014819 | 20 | 201 | 8.0 | 16.1 | 0.00 | 0.00 | 0.00 | 74 | 1017.4 |
| 20260504014315 | 20 | 202 | 9.7 | 11.3 | 0.00 | 0.00 | 0.00 | 74 | 1017.3 |
| 20260504013813 | 20 | 198 | 8.0 | 16.1 | 0.00 | 0.00 | 0.00 | 74 | 1017.1 |
| 20260504013311 | 20 | 214 | 6.4 | 12.9 | 0.00 | 0.00 | 0.00 | 74 | 1017.1 |
| 20260504012807 | 20 | 212 | 11.3 | 14.5 | 0.00 | 0.00 | 0.00 | 74 | 1017.1 |
| 20260504012305 | 20 | 205 | 9.7 | 12.9 | 0.00 | 0.00 | 0.00 | 74 | 1016.8 |
| 20260504011802 | 21 | 217 | 9.7 | 12.9 | 0.00 | 0.00 | 0.00 | 74 | 1017.0 |
| 20260504011258 | 21 | 153 | 9.7 | 12.9 | 0.00 | 0.00 | 0.00 | 74 | 1016.9 |
| 20260504010754 | 21 | 194 | 6.4 | 11.3 | 0.00 | 0.00 | 0.00 | 74 | 1017.0 |
| 20260504010250 | 21 | 223 | 11.3 | 11.3 | 0.00 | 0.00 | 0.00 | 74 | 1017.0 |
| 20260504005747 | 21 | 216 | 11.3 | 14.5 | 0.00 | 0.00 | 0.00 | 74 | 1016.9 |
| 20260504005244 | 21 | 204 | 12.9 | 16.1 | 0.00 | 0.00 | 0.00 | 74 | 1016.8 |
| 20260504004742 | 21 | 208 | 14.5 | 17.7 | 0.00 | 0.00 | 0.00 | 74 | 1017.0 |
| 20260504004239 | 22 | 211 | 11.3 | 19.3 | 0.00 | 0.00 | 0.00 | 74 | 1017.0 |
| 20260504003735 | 22 | 204 | 17.7 | 17.7 | 0.00 | 0.00 | 0.00 | 74 | 1017.0 |
| 20260504003232 | 22 | 206 | 12.9 | 14.5 | 0.00 | 0.00 | 0.00 | 74 | 1017.1 |
| 20260504002729 | 22 | 203 | 11.3 | 17.7 | 0.00 | 0.00 | 0.00 | 74 | 1016.9 |
| 20260504002226 | 22 | 203 | 16.1 | 17.7 | 0.00 | 0.00 | 0.00 | 74 | 1016.9 |
| 20260504001724 | 22 | 202 | 14.5 | 17.7 | 0.00 | 0.00 | 0.00 | 74 | 1016.9 |
| 20260504001220 | 22 | 208 | 9.7 | 17.7 | 0.00 | 0.00 | 0.00 | 74 | 1016.8 |
| 20260504000717 | 22 | 204 | 12.9 | 17.7 | 0.00 | 0.00 | 0.00 | 74 | 1017.0 |
| 20260504000214 | 22 | 241 | 9.7 | 20.9 | 0.00 | 0.00 | 0.00 | 74 | 1016.7 |
| 20260503235713 | 23 | 227 | 14.5 | 22.5 | 0.00 | 0.00 | 0.00 | 74 | 1017.0 |
| 20260503235209 | 23 | 198 | 12.9 | 25.7 | 0.00 | 0.00 | 0.00 | 74 | 1016.9 |
| 20260503234707 | 23 | 204 | 11.3 | 19.3 | 0.00 | 0.00 | 0.00 | 74 | 1016.9 |
| 20260503234205 | 23 | 195 | 14.5 | 22.5 | 0.00 | 0.00 | 0.00 | 74 | 1017.1 |
| 20260503233702 | 23 | 205 | 9.7 | 24.1 | 0.00 | 0.00 | 0.00 | 74 | 1017.1 |
| 20260503233157 | 23 | 202 | 11.3 | 22.5 | 0.00 | 0.00 | 0.00 | 74 | 1017.0 |
| 20260503232654 | 23 | 198 | 9.7 | 25.7 | 0.00 | 0.00 | 0.00 | 74 | 1017.3 |
| 20260503232151 | 23 | 191 | 14.5 | 19.3 | 0.00 | 0.00 | 0.00 | 74 | 1017.3 |
| 20260503231650 | 23 | 203 | 9.7 | 22.5 | 0.00 | 0.00 | 0.00 | 74 | 1017.4 |
| 20260503231145 | 24 | 196 | 9.7 | 25.7 | 0.00 | 0.00 | 0.00 | 74 | 1017.4 |
| 20260503230642 | 24 | 254 | 14.5 | 14.5 | 0.00 | 0.00 | 0.00 | 75 | 1017.5 |
| 20260503230140 | 24 | 267 | 4.8 | 22.5 | 0.00 | 0.00 | 0.00 | 75 | 1017.4 |
| 20260503225637 | 24 | 249 | 12.9 | 27.4 | 0.00 | 0.00 | 0.00 | 75 | 1017.6 |
| 20260503225137 | 24 | 222 | 20.9 | 27.4 | 0.00 | 0.00 | 0.00 | 74 | 1017.5 |
| 20260503224634 | 23 | 207 | 11.3 | 22.5 | 0.00 | 0.00 | 0.00 | 74 | 1017.5 |
| 20260503224132 | 23 | 203 | 17.7 | 25.7 | 0.00 | 0.00 | 0.00 | 74 | 1017.7 |
| 20260503223630 | 24 | 228 | 14.5 | 20.9 | 0.00 | 0.00 | 0.00 | 74 | 1017.8 |
| 20260503223126 | 23 | 200 | 11.3 | 22.5 | 0.00 | 0.00 | 0.00 | 74 | 1017.8 |
| 20260503222623 | 24 | 165 | 6.4 | 20.9 | 0.00 | 0.00 | 0.00 | 74 | 1017.8 |
| 20260503222121 | 23 | 205 | 17.7 | 29.0 | 0.00 | 0.00 | 0.00 | 74 | 1017.8 |
| 20260503221619 | 24 | 198 | 17.7 | 25.7 | 0.00 | 0.00 | 0.00 | 74 | 1018.0 |
| 20260503221116 | 23 | 207 | 16.1 | 27.4 | 0.00 | 0.00 | 0.00 | 74 | 1018.0 |
| 20260503220613 | 23 | 214 | 16.1 | 24.1 | 0.00 | 0.00 | 0.00 | 74 | 1018.0 |
| 20260503220110 | 23 | 210 | 16.1 | 29.0 | 0.00 | 0.00 | 0.00 | 74 | 1018.2 |
| 20260503215607 | 23 | 146 | 3.2 | 19.3 | 0.00 | 0.00 | 0.00 | 74 | 1018.1 |
| 20260503215103 | 23 | 180 | 9.7 | 14.5 | 0.00 | 0.00 | 0.00 | 74 | 1018.2 |
| 20260503214602 | 23 | 206 | 1.6 | 20.9 | 0.00 | 0.00 | 0.00 | 74 | 1018.4 |
| 20260503214058 | 23 | 225 | 17.7 | 24.1 | 0.00 | 0.00 | 0.00 | 74 | 1018.6 |
| 20260503213557 | 23 | 231 | 20.9 | 22.5 | 0.00 | 0.00 | 0.00 | 74 | 1018.4 |
| 20260503213053 | 23 | 220 | 0.0 | 25.7 | 0.00 | 0.00 | 0.00 | 74 | 1018.3 |
| 20260503212550 | 23 | 209 | 4.8 | 19.3 | 0.00 | 0.00 | 0.00 | 74 | 1018.5 |
| 20260503212047 | 23 | 234 | 16.1 | 35.4 | 0.00 | 0.00 | 0.00 | 74 | 1018.4 |
| 20260503211545 | 23 | 250 | 11.3 | 20.9 | 0.00 | 0.00 | 0.00 | 74 | 1018.4 |
| 20260503211040 | 23 | 197 | 3.2 | 24.1 | 0.00 | 0.00 | 0.00 | 74 | 1018.8 |
| 20260503210537 | 23 | 224 | 14.5 | 20.9 | 0.00 | 0.00 | 0.00 | 74 | 1018.8 |
| 20260503210033 | 23 | 249 | 14.5 | 25.7 | 0.00 | 0.00 | 0.00 | 74 | 1018.7 |
| 20260503205530 | 23 | 192 | 0.0 | 29.0 | 0.00 | 0.00 | 0.00 | 74 | 1019.1 |
| 20260503205026 | 22 | 196 | 6.4 | 32.2 | 0.00 | 0.00 | 0.00 | 74 | 1019.2 |
| 20260503204523 | 23 | 294 | 4.8 | 25.7 | 0.00 | 0.00 | 0.00 | 74 | 1019.3 |
| 20260503204020 | 22 | 215 | 14.5 | 29.0 | 0.00 | 0.00 | 0.00 | 74 | 1019.5 |
| 20260503203517 | 22 | 194 | 6.4 | 20.9 | 0.00 | 0.00 | 0.00 | 74 | 1019.5 |
| 20260503203014 | 22 | 206 | 11.3 | 22.5 | 0.00 | 0.00 | 0.00 | 74 | 1019.8 |
| 20260503202512 | 22 | 253 | 4.8 | 24.1 | 0.00 | 0.00 | 0.00 | 74 | 1019.9 |
| 20260503202010 | 22 | 206 | 4.8 | 19.3 | 0.00 | 0.00 | 0.00 | 74 | 1019.9 |
| 20260503201508 | 22 | 264 | 11.3 | 32.2 | 0.00 | 0.00 | 0.00 | 74 | 1020.4 |
| 20260503201005 | 22 | 210 | 16.1 | 32.2 | 0.00 | 0.00 | 0.00 | 74 | 1020.4 |
| 20260503200501 | 22 | 227 | 17.7 | 22.5 | 0.00 | 0.00 | 0.00 | 74 | 1020.5 |
| 20260503195957 | 22 | 223 | 12.9 | 29.0 | 0.00 | 0.00 | 0.00 | 74 | 1020.3 |
| 20260503195455 | 22 | 235 | 9.7 | 20.9 | 0.00 | 0.00 | 0.00 | 74 | 1020.5 |
| 20260503194951 | 22 | 240 | 8.0 | 19.3 | 0.00 | 0.00 | 0.00 | 74 | 1020.5 |
| 20260503194449 | 21 | 244 | 11.3 | 20.9 | 0.00 | 0.00 | 0.00 | 74 | 1020.7 |
| 20260503193944 | 21 | 221 | 11.3 | 37.0 | 0.00 | 0.00 | 0.00 | 74 | 1020.7 |
| 20260503193439 | 21 | 231 | 8.0 | 22.5 | 0.00 | 0.00 | 0.00 | 74 | 1020.8 |
| 20260503192935 | 21 | 238 | 19.3 | 38.6 | 0.00 | 0.00 | 0.00 | 74 | 1020.9 |
| 20260503192432 | 21 | 277 | 8.0 | 32.2 | 0.00 | 0.00 | 0.00 | 74 | 1021.1 |
| 20260503191927 | 21 | 232 | 14.5 | 24.1 | 0.00 | 0.00 | 0.00 | 74 | 1021.1 |
| 20260503191425 | 21 | 256 | 17.7 | 25.7 | 0.00 | 0.00 | 0.00 | 74 | 1021.2 |
| 20260503190921 | 21 | 215 | 11.3 | 24.1 | 0.00 | 0.00 | 0.00 | 74 | 1021.3 |
| 20260503190419 | 21 | 243 | 4.8 | 19.3 | 0.00 | 0.00 | 0.00 | 74 | 1021.4 |
| 20260503185915 | 21 | 205 | 16.1 | 20.9 | 0.00 | 0.00 | 0.00 | 74 | 1021.5 |
| 20260503185412 | 21 | 257 | 6.4 | 16.1 | 0.00 | 0.00 | 0.00 | 74 | 1021.6 |
| 20260503184911 | 21 | 210 | 19.3 | 27.4 | 0.00 | 0.00 | 0.00 | 74 | 1021.4 |
| 20260503184408 | 21 | 235 | 8.0 | 20.9 | 0.00 | 0.00 | 0.00 | 74 | 1021.5 |
| 20260503183904 | 21 | 229 | 9.7 | 20.9 | 0.00 | 0.00 | 0.00 | 74 | 1021.7 |
| 20260503183401 | 20 | 229 | 4.8 | 20.9 | 0.00 | 0.00 | 0.00 | 74 | 1022.0 |
| 20260503182858 | 21 | 192 | 9.7 | 17.7 | 0.00 | 0.00 | 0.00 | 74 | 1021.6 |
| 20260503182357 | 20 | 202 | 9.7 | 16.1 | 0.00 | 0.00 | 0.00 | 74 | 1022.0 |
| 20260503181853 | 20 | 226 | 11.3 | 19.3 | 0.00 | 0.00 | 0.00 | 74 | 1021.9 |
| 20260503181351 | 20 | 157 | 8.0 | 22.5 | 0.00 | 0.00 | 0.00 | 74 | 1022.2 |
| 20260503180847 | 21 | 244 | 9.7 | 17.7 | 0.00 | 0.00 | 0.00 | 74 | 1022.0 |
| 20260503180345 | 20 | 219 | 9.7 | 14.5 | 0.00 | 0.00 | 0.00 | 74 | 1022.4 |
| 20260503175842 | 20 | 220 | 17.7 | 29.0 | 0.00 | 0.00 | 0.00 | 74 | 1022.5 |
| 20260503175340 | 20 | 225 | 9.7 | 19.3 | 0.00 | 0.00 | 0.00 | 74 | 1022.6 |
| 20260503174835 | 20 | 222 | 9.7 | 24.1 | 0.00 | 0.00 | 0.00 | 74 | 1022.5 |
| 20260503174333 | 20 | 225 | 27.4 | 27.4 | 0.00 | 0.00 | 0.00 | 73 | 1022.6 |
| 20260503173828 | 19 | 238 | 12.9 | 19.3 | 0.00 | 0.00 | 0.00 | 73 | 1022.8 |
| 20260503173325 | 19 | 201 | 12.9 | 19.3 | 0.00 | 0.00 | 0.00 | 73 | 1022.7 |
| 20260503172822 | 20 | 270 | 0.0 | 20.9 | 0.00 | 0.00 | 0.00 | 73 | 1022.9 |
| 20260503172320 | 20 | 220 | 19.3 | 20.9 | 0.00 | 0.00 | 0.00 | 73 | 1023.0 |
| 20260503171815 | 18 | 207 | 11.3 | 24.1 | 0.00 | 0.00 | 0.00 | 73 | 1023.0 |
| 20260503171312 | 19 | 190 | 3.2 | 17.7 | 0.00 | 0.00 | 0.00 | 73 | 1023.3 |
| 20260503170809 | 18 | 201 | 8.0 | 17.7 | 0.00 | 0.00 | 0.00 | 73 | 1023.4 |
| 20260503170306 | 18 | 231 | 9.7 | 22.5 | 0.00 | 0.00 | 0.00 | 73 | 1023.4 |
| 20260503150658 | 15 | 198 | 4.8 | 29.0 | 0.00 | 0.00 | 0.00 | 73 | 1024.6 |
| 20260503150154 | 15 | 202 | 4.8 | 30.6 | 0.00 | 0.00 | 0.00 | 73 | 1024.5 |
| 20260503140119 | 12 | 211 | 8.0 | 19.3 | 0.00 | 0.00 | 0.00 | 72 | 1024.8 |
| 20260503131048 | 10 | 194 | 12.9 | 22.5 | 0.00 | 0.00 | 0.00 | 72 | 1025.0 |
| 20260503130545 | 10 | 217 | 4.8 | 17.7 | 0.00 | 0.00 | 0.00 | 72 | 1024.9 |
| 20260503110436 | 7 | 164 | 4.8 | 11.3 | 0.00 | 0.00 | 0.00 | 71 | 1023.8 |
| 20260503090321 | 7 | 153 | 4.8 | 6.4 | 0.00 | 0.00 | 0.00 | 71 | 1024.6 |
| 20260503081248 | 7 | 156 | 0.0 | 8.0 | 0.00 | 0.00 | 0.00 | 71 | 1024.7 |
| 20260503080744 | 7 | 133 | 4.8 | 6.4 | 0.00 | 0.00 | 0.00 | 71 | 1024.8 |
| 20260503080242 | 7 | 180 | 3.2 | 6.4 | 0.00 | 0.00 | 0.00 | 71 | 1024.7 |
| 20260503072718 | 6 | 124 | 8.0 | 11.3 | 0.00 | 0.00 | 0.00 | 71 | 1024.6 |
| 20260503072215 | 6 | 110 | 6.4 | 8.0 | 0.00 | 0.00 | 0.00 | 71 | 1024.6 |
| 20260503071712 | 6 | 277 | 0.0 | 3.2 | 0.00 | 0.00 | 0.00 | 71 | 1024.7 |
| 20260503071209 | 6 | 287 | 0.0 | 3.2 | 0.00 | 0.00 | 0.00 | 71 | 1024.6 |
| 20260503070705 | 6 | 239 | 4.8 | 4.8 | 0.00 | 0.00 | 0.00 | 71 | 1024.7 |
| 20260503070204 | 6 | 233 | 0.0 | 4.8 | 0.00 | 0.00 | 0.00 | 71 | 1024.7 |